Location: Bellerive
(46.9237°N, 7.0223°E)
Time: 08:03:58
(UTC+00:00)

RESURS DK-1 - Pass Details

Date: 09 April 2020
Orbit: 557 x 561 km, 69.9° (Epoch: 02 June)

Event Time Altitude Azimuth Distance (km) Brightness Sun altitude
Rises 20:44:19 0° 332° (NNW) 2,760 7.1 -23.5°
Reaches altitude 10° 20:46:32 10° 333° (NNW) 1,859 6.0 -23.8°
Enters shadow 20:50:16 69° 359° (N) 604 2.5 -24.3°
